AirNav   Air Wisconsin pilot careers
 
 1605 users online  

T94 Twin-Oaks Airport
San Antonio, Texas, USA

GOING TO SAN ANTONIO?


FAA INFORMATION EFFECTIVE 11 OCTOBER 2018

Location

FAA Identifier: T94
Lat/Long: 29-34-12.6730N / 098-28-06.2010W
29-34.211217N / 098-28.103350W
29.5701869 / -98.4683892
(estimated)
Elevation: 873 ft. / 266 m (estimated)
Variation: 07E (1985)
From city: 3 miles N of SAN ANTONIO, TX
Time zone: UTC -5 (UTC -6 during Standard Time)
Zip code: 78232

Airport Operations

Airport use: Open to the public
Activation date: 03/1964
Control tower: no
ARTCC: HOUSTON CENTER
FSS: SAN ANGELO FLIGHT SERVICE STATION
NOTAMs facility: SJT (NOTAM-D service available)
Attendance: UNATNDD
Wind indicator: yes
Segmented circle: no

Airport Communications

CTAF: 122.9
WX ASOS at SAT (2.2 nm S): PHONE 210-805-5583
WX ASOS at SSF (14 nm S): PHONE 210-927-9391
WX AWOS-3 at 5C1 (15 nm NW): 118.725 (830-755-9099)

Nearby radio navigation aids

VOR radial/distance  VOR name  Freq  Var
SATr177/4.4SAN ANTONIO VORTAC116.8008E
RNDr283/10.0RANDOLPH VORTAC112.3005E
SSFr347/(18.8)STINSON VOR108.4009E

 
NDB name  Hdg/Dist  Freq  Var  ID
ALAMO109/5.736804EAN .- -.
DEVINE037/35.735907EHHH .... .... ....
HONDO064/38.632908EHMA .... -- .-

Airport Services

Parking: hangars and tiedowns
Airframe service: MINOR
Powerplant service: MINOR
Bulk oxygen: NONE

Runway Information

Runway 12/30

Dimensions: 2225 x 30 ft. / 678 x 9 m
Surface: asphalt, in fair condition
Weight bearing capacity: 
Single wheel: 4.0
Runway edge markings: RY NUMBERS 10 FT TALL; CNTRLN STRIPE 20 FT LONG WITH 20 FT SPACES.
RUNWAY 12  RUNWAY 30
Gradient: 1.9%1.9%
Traffic pattern: leftleft
Markings: NSTD, in good conditionNSTD, in good condition
Obstructions: 65 ft. trees, 200 ft. from runway
+6 FT FENCE 30 FT L; ACES ROAD 50 FT R; BLDGS 60-100 FT L OF EXTDD CNTRLN; +30 FT TREE 17 FT FM RY END; +30-50 FT TREES FM THLD TO 200 FT FM THLD ACRS APCH; 5 FT FENCE 23 FT FM THLD ACRS APCH; 15 FT ROAD 34 FT FM THLD ACRS APCH.
34 ft. tree, 200 ft. from runway
6 FT FENCE 40 FT EAST OF RY; 5 FT FENCE 23 FT FM THLD ACROSS APPROACH; 13 FT ROAD 33 FT FM THLD ACROSS APPROACH.

Airport Ownership and Management from official FAA records

Ownership: Privately-owned
Owner: TWIN OAKS AIR PARK
630 HEIMER RD
SAN ANTONIO, TX 78232
Phone 210-494-3928
Manager: SHIRLEY FOWLER
630 HEIMER RD
SAN ANTONIO, TX 78232
Phone 210-494-3928

Airport Operational Statistics

Aircraft based on the field: 12
Single engine airplanes: 12
    
Aircraft operations: avg 48/month *
87% local general aviation
13% transient general aviation
* for 12-month period ending 12 May 2017

Additional Remarks

HGRS, TREES, BLDGS WITHIN 50' OF RWY.
RESIDENTAL HOUSES, HANGARS AND TREES OBSTRUCT RY PRIM SFC NORTHEAST OF RY.
ARPT CLSD AT NIGHT TO TRANSIENT ACFT.
WOODEN FENCE LCTD APRXLY 70 FT EAST OF RY ENTIRE LENGTH OF RY.
COORD ARR & DEP WITH SAN ANTONIO INTL ATCT.
FOR CD CTC SAT APCH AT 210-805-5516.

Instrument Procedures

There are no published instrument procedures at T94.

Some nearby airports with instrument procedures:

KSAT - San Antonio International Airport (2 nm S)
KRND - Randolph Air Force Base (10 nm E)
KSKF - Kelly Field Airport (13 nm SW)
KSSF - Stinson Municipal Airport (14 nm S)
5C1 - Boerne Stage Field Airport (15 nm NW)
 
Loc | Ops | Rwys | IFR | FBO | Links
Com | Nav | Svcs | Stats | Notes


 
Area around T94 (Twin-Oaks Airport)
 
Road maps at: MapQuest Bing Google
 
Aerial photo
WARNING: Photo may not be current or correct
Aerial photo of T94 (Twin-Oaks Airport)
Do you have a better or more recent aerial photo of Twin-Oaks Airport that you would like to share? If so, please send us your photo.

 
Sectional chart

 
Airport distance calculator
Flying to Twin-Oaks Airport? Find the distance to fly.

From to T94

Sunrise and sunset
Times for 17-Oct-2018
 Local
(UTC-5)
 Zulu
(UTC)
Morning civil twilight07:1412:14
Sunrise07:3812:38
Sunset19:0100:01
Evening civil twilight19:2500:25

Current date and time
Zulu (UTC)  17-Oct-2018 14:49:13
Local (UTC-5)  17-Oct-2018 09:49:13
 
METAR
KSAT 
2nm S 
171351Z 36010KT 10SM -DZ FEW012 OVC023 11/08 A3025 RMK AO2 SLP235 P0000 T01110083
KRND 
11nm E 
171431Z 35008KT 10SM BKN011 OVC024 12/09 A3027 RMK AO2A DZB01E14 CIG 011V024 BKN V SCT SLP251
KSKF 
13nm SW 
171356Z 36008KT 10SM BKN017 OVC029 11/08 A3028 RMK SLP254 AO2A WND DATA ESTMD/ALSTG ESTMD $
KSSF 
14nm S 
171353Z 34006KT 10SM BKN017 OVC025 13/08 A3025 RMK AO2 SLP243 T01280078
K5C1 
15nm NW 
171435Z AUTO 35008G18KT 10SM BKN008 OVC013 08/07 A3028 RMK AO1
TAF
KSAT 
2nm S 
171126Z 1712/1818 01012KT P6SM VCSH OVC011 FM180100 02012KT P6SM VCSH OVC008 FM180900 02012KT 3SM -SHRA BR BKN007 OVC015
KRND 
11nm E 
171050Z 1710/1815 01012KT 8000 -SHRA OVC010 QNH3018INS TX14/1719Z TN09/1710Z
KSKF 
13nm SW 
171333Z 1713/1816 36009KT 9999 FEW011 BKN015 OVC029 QNH3017INS BECMG 1802/1803 02010KT 9999 VCSH BKN008 OVC015 QNH3020INS TX14/1720Z TN10/1713Z
KSSF 
14nm S 
171126Z 1712/1812 01010KT P6SM VCSH OVC011 FM180100 02010KT P6SM VCSH OVC008 FM180900 02010KT 3SM -SHRA BR BKN007 OVC015
NOTAMs
Click for the latest NOTAMs
NOTAMs are issued by the DoD/FAA and will open in a separate window not controlled by AirNav.

 

 
 

Would you like to see your business listed on this page?

 If your business provides an interesting product or service to pilots, flight crews, aircraft, or users of the Twin-Oaks Airport, you should consider listing it here.  To start the listing process, click on the button below
 
Add a business
 

Other Pages about Twin-Oaks Airport

Update a link
 
Copyright © AirNav, LLC. All rights reserved. Privacy Policy  Contact